[[{"header":{"parameterUnit":"m.s-1","parameterCategory":1,"la1":30.2991,"la2":30.254,"lo1":-89.0895,"lo2":-89.0444,"dy":0.0017,"dx":0.0017,"nx":28,"ny":28,"refTime":"2025-01-02T09:00:00:Z","depth":0,"parameterNumber":2,"parameterNumberName":"U-component_of_WINDS"},"data":[0,0,0,0,0,0,0,0,0,0,0,0,0,0,0,0,0,0,0,0,0,0,0,0,0,0,0,0,0,0,0,0,0,0,0,0,0,0,0,0,0,0,0,0,0,0,0,0,0,0,0,0,0,0,0,0,0,0,-1.6904,-1.6904,0,-1.6907,-1.6907,-1.6907,-1.681,-1.6808,-1.6805,-1.6803,-1.6809,-1.6811,-1.6814,0,0,0,0,0,0,0,0,0,0,0,0,0,-1.6817,-1.6819,-1.6904,-1.6904,-1.6904,-1.6907,-1.6907,-1.6907,-1.6811,-1.6808,-1.6804,-1.6801,-1.6808,-1.6811,-1.6814,0,0,0,0,0,0,0,0,0,0,0,0,0,-1.6841,-1.682,-1.6904,-1.6856,-1.6852,-1.6907,-1.6907,-1.6907,-1.6811,-1.6807,-1.6804,-1.68,-1.6807,-1.6811,-1.6815,-1.6916,0,0,-1.6827,-1.6828,0,0,0,0,0,0,0,0,-1.684,-1.6844,-1.6863,-1.686,-1.6855,-1.6854,-1.6878,-1.691,-1.6812,-1.6827,-1.6803,-1.6798,-1.6827,-1.6829,-1.6839,-1.6917,-1.6917,-1.6827,-1.6829,-1.6831,-1.6832,0,0,0,0,0,0,0,-1.6838,-1.6844,-1.6905,-1.6864,-1.6859,-1.6835,-1.6835,-1.6884,-1.6849,-1.6825,-1.6818,-1.682,-1.6824,-1.6835,-1.6838,-1.6917,-1.6827,-1.683,-1.6833,-1.6834,-1.7079,-1.7083,0,0,0,0,0,0,-1.6843,-1.6843,-1.6905,-1.6905,-1.6838,-1.684,-1.6839,-1.6858,-1.6848,-1.6843,-1.6823,-1.6815,-1.683,-1.6834,-1.6838,-1.6957,-1.6831,-1.6835,-1.6837,-1.7075,-1.708,-1.7084,0,0,0,0,0,0,-1.6841,-1.6849,-1.6905,-1.6872,-1.6877,-1.6846,-1.6868,-1.6861,-1.6871,-1.6846,-1.684,-1.684,-1.6827,-1.6832,-1.6897,-1.6956,-1.6836,-1.684,-1.707,-1.7076,-1.7082,-1.7196,0,0,0,0,0,0,-1.6839,-1.6849,-1.6887,-1.6874,-1.688,-1.6964,-1.6872,-1.6863,-1.6878,-1.6867,-1.6861,-1.6856,-1.6825,-1.6892,-1.6901,-1.6959,-1.6843,-1.7065,-1.7073,-1.708,-1.7187,-1.7206,-1.7221,0,0,0,0,0,-1.6836,-1.692,-1.689,-1.6898,-1.6926,-1.6968,-1.6971,-1.6933,-1.6883,-1.6921,-1.6905,-1.6856,-1.6947,-1.69,-1.6909,-1.6969,-1.7061,-1.7071,-1.708,-1.7179,-1.7202,-1.7221,0,0,0,0,0,0,-1.6943,-1.6917,-1.6884,-1.6965,-1.6969,-1.6951,-1.6999,-1.6958,-1.6977,-1.6967,-1.6918,-1.6918,-1.6991,-1.6986,-1.6933,-1.7067,-1.6995,-1.7007,-1.7068,-1.7089,-1.7106,-1.7107,-1.6846,0,0,0,0,0,-1.6975,-1.701,-1.6986,-1.706,-1.7064,-1.7031,-1.7048,-1.7017,-1.702,-1.7022,-1.7011,-1.7016,-1.7046,-1.7067,-1.7093,-1.7185,-1.7183,-1.723,-1.7248,-1.7262,-1.7273,-1.7322,-1.7344,-1.7115,-1.7115,-1.7115,0,0,-1.7044,-1.7034,-1.7059,-1.7082,-1.7081,-1.712,-1.7034,-1.7078,-1.7106,-1.7029,-1.709,-1.7082,-1.7085,-1.7164,-1.7198,-1.7162,-1.7335,-1.7274,-1.7285,-1.7289,-1.7334,-1.7356,-1.7375,-1.7122,-1.7121,-1.712,0,0,-1.7188,-1.7184,-1.7245,-1.7246,-1.7246,-1.7224,-1.7238,-1.7227,-1.7218,-1.7278,-1.7221,-1.7254,-1.7306,-1.731,-1.732,-1.7464,-1.7421,-1.7474,-1.7565,-1.7613,-1.7631,-1.7647,-1.77,-1.772,-1.7485,-1.7485,-1.7486,0,-1.7274,-1.7328,-1.7282,-1.733,-1.7342,-1.7272,-1.7335,-1.7338,-1.7348,-1.7358,-1.7316,-1.738,-1.7377,-1.7457,-1.7492,-1.7501,-1.7517,-1.7476,-1.7632,-1.7647,-1.7661,-1.7712,-1.7732,-1.7492,-1.7491,-1.7491,-1.749,0,-1.7434,-1.7473,-1.7522,-1.7532,-1.7549,-1.7604,-1.7568,-1.759,-1.7558,-1.754,-1.7602,-1.7595,-1.7619,-1.7635,-1.7604,-1.7711,-1.7688,-1.764,-1.7568,-1.7691,-1.7737,-1.7756,-1.7501,-1.7499,-1.7497,-1.7495,0,0,-1.7648,-1.763,-1.765,-1.7653,-1.7647,-1.7677,-1.7728,-1.775,-1.7772,-1.7779,-1.7823,-1.7868,-1.7823,-1.7833,-1.7802,-1.7844,-1.7961,-1.7791,-1.779,-1.7824,-1.8079,-1.8117,-1.814,-1.7931,-1.7934,-1.7937,-1.808,0,-1.779,-1.7877,-1.7837,-1.7929,-1.7965,-1.7898,-1.7943,-1.7945,-1.7929,-1.7957,-1.7939,-1.7973,-1.791,-1.7916,-1.7955,-1.7939,-1.8012,-1.7927,-1.7972,-1.7974,-1.7976,-1.8164,-1.8205,-1.834,-1.8097,-1.81,-1.8102,0,-1.7967,-1.7982,-1.8078,-1.8065,-1.8078,-1.812,-1.8137,-1.8164,-1.8165,-1.815,-1.8161,-1.812,-1.817,-1.8096,-1.8166,-1.811,-1.8125,-1.812,-1.8124,-1.8129,-1.8048,-1.8176,-1.8382,-1.8403,-1.813,-1.8128,-1.8126,0,-1.8117,-1.816,-1.8222,-1.8227,-1.8214,-1.8245,-1.824,-1.8237,-1.8252,-1.8267,-1.8277,-1.8297,-1.831,-1.8327,-1.8292,-1.8241,-1.8367,-1.829,-1.8358,-1.8359,-1.839,-1.8389,-1.8604,-1.8396,-1.8396,-1.8396,-1.8395,0,-1.828,-1.8342,-1.8289,-1.8328,-1.8395,-1.8348,-1.8416,-1.8404,-1.8402,-1.8438,-1.8381,-1.8416,-1.8367,-1.8398,-1.8371,-1.8434,-1.8439,-1.843,-1.8422,-1.8436,-1.8438,-1.8448,-1.8438,-1.8401,-1.84,-1.8399,-1.8398,0,-1.846,-1.8426,-1.8491,-1.8472,-1.8468,-1.8519,-1.8503,-1.8539,-1.8518,-1.8564,-1.8573,-1.854,-1.8573,-1.854,-1.8571,-1.8553,-1.8638,-1.8615,-1.8638,-1.8632,-1.8703,-1.8697,-1.8933,-1.8962,-1.8734,-1.8737,-1.8738,0,-1.8568,-1.8614,-1.8599,-1.8619,-1.8618,-1.865,-1.8665,-1.862,-1.8638,-1.8642,-1.8678,-1.8705,-1.8725,-1.8782,-1.8762,-1.8785,-1.8764,-1.8845,-1.8768,-1.878,-1.8768,-1.8767,-1.8772,-1.8862,-1.8865,-1.8867,-1.8869,0,-1.8764,-1.8745,-1.8769,-1.8787,-1.8806,-1.8819,-1.8827,-1.8846,-1.8799,-1.8823,-1.8855,-1.8871,-1.8902,-1.8931,-1.8948,-1.8944,-1.89,-1.8892,-1.891,-1.8926,-1.8938,-1.8934,-1.8683,-1.8888,-1.8886,-1.8885,-1.8884,-1.8883,-1.8912,-1.895,-1.8946,-1.8974,-1.8975,-1.8983,-1.9016,-1.8998,-1.9024,-1.9046,-1.9017,-1.9058,-1.9056,-1.9074,-1.9076,-1.9108,-1.9074,-1.9098,-1.9105,-1.9112,-1.9124,-1.8931,-1.911,-1.911,-1.9109,-1.9109,-1.9108,0,-1.9107,-1.91,-1.9127,-1.9139,-1.9162,-1.9115,-1.9121,-1.9144,-1.918,-1.9182,-1.9202,-1.924,-1.9267,-1.9248,-1.9272,-1.9301,-1.9281,-1.9309,-1.9308,-1.9308,-1.9152,-1.9135,-1.9324,-1.9324,-1.9324,-1.9324,-1.9324,-1.9324,-1.9211,-1.9273,-1.9253,-1.9315,-1.9307,-1.9346,-1.9354,-1.9362,-1.9363,-1.9407,-1.9429,-1.9416,-1.941,-1.9432,-1.9455,-1.9449,-1.9461,-1.9497,-1.9484,-1.934,-1.9318,-1.9298,-1.9283,-1.95,-1.95,-1.9637,-1.9639,-1.964]},{"header":{"parameterUnit":"m.s-1","parameterCategory":1,"la1":30.2991,"la2":30.254,"lo1":-89.0895,"lo2":-89.0444,"dy":0.0017,"dx":0.0017,"nx":28,"ny":28,"refTime":"2025-01-02T09:00:00:Z","depth":0,"parameterNumber":3,"parameterNumberName":"V-component_of_WINDS"},"data":[0,0,0,0,0,0,0,0,0,0,0,0,0,0,0,0,0,0,0,0,0,0,0,0,0,0,0,0,0,0,0,0,0,0,0,0,0,0,0,0,0,0,0,0,0,0,0,0,0,0,0,0,0,0,0,0,0,0,-3.8407,-3.8408,0,-3.8463,-3.8464,-3.8464,-3.8394,-3.8391,-3.8389,-3.8386,-3.8442,-3.8445,-3.8449,0,0,0,0,0,0,0,0,0,0,0,0,0,-3.8237,-3.8241,-3.8407,-3.8408,-3.8408,-3.8463,-3.8464,-3.8465,-3.8394,-3.8391,-3.8388,-3.8385,-3.844,-3.8445,-3.845,0,0,0,0,0,0,0,0,0,0,0,0,0,-3.8304,-3.8242,-3.8407,-3.838,-3.8378,-3.8463,-3.8464,-3.8465,-3.8395,-3.8391,-3.8387,-3.8384,-3.8439,-3.8444,-3.845,-3.8563,0,0,-3.8468,-3.847,0,0,0,0,0,0,0,0,-3.83,-3.831,-3.8383,-3.8382,-3.838,-3.8418,-3.8424,-3.8498,-3.8396,-3.8389,-3.8386,-3.8382,-3.8437,-3.8442,-3.8461,-3.8566,-3.8568,-3.8468,-3.8472,-3.8474,-3.8476,0,0,0,0,0,0,0,-3.8296,-3.8307,-3.8429,-3.8384,-3.8383,-3.8365,-3.837,-3.8438,-3.8433,-3.8389,-3.8384,-3.8392,-3.8435,-3.8456,-3.8462,-3.8569,-3.8468,-3.8473,-3.8477,-3.8479,-3.8769,-3.8773,0,0,0,0,0,0,-3.8294,-3.8304,-3.8427,-3.8431,-3.833,-3.8371,-3.8377,-3.8409,-3.8433,-3.8432,-3.8395,-3.8388,-3.8448,-3.8455,-3.8464,-3.8598,-3.8474,-3.848,-3.8483,-3.8765,-3.877,-3.8775,0,0,0,0,0,0,-3.8291,-3.8306,-3.8425,-3.8366,-3.838,-3.8378,-3.8415,-3.8413,-3.8433,-3.8437,-3.8436,-3.8417,-3.8445,-3.8456,-3.8539,-3.8599,-3.8482,-3.8488,-3.876,-3.8767,-3.8773,-3.8867,0,0,0,0,0,0,-3.8287,-3.8305,-3.8349,-3.8368,-3.8383,-3.8501,-3.8419,-3.8416,-3.8444,-3.8436,-3.8458,-3.8458,-3.8443,-3.8531,-3.8545,-3.8605,-3.8492,-3.8755,-3.8763,-3.8771,-3.8859,-3.8876,-3.8891,0,0,0,0,0,-3.8281,-3.8373,-3.8351,-3.8367,-3.8438,-3.8504,-3.8513,-3.8495,-3.8449,-3.8492,-3.8495,-3.8457,-3.859,-3.854,-3.8555,-3.8618,-3.8751,-3.8761,-3.877,-3.8852,-3.8873,-3.8891,0,0,0,0,0,0,-3.836,-3.8375,-3.8351,-3.8452,-3.8478,-3.8492,-3.8546,-3.8518,-3.8556,-3.8547,-3.8522,-3.8527,-3.8617,-3.8625,-3.857,-3.8728,-3.8663,-3.8676,-3.872,-3.874,-3.8755,-3.8752,-3.8497,0,0,0,0,0,-3.8389,-3.8443,-3.8452,-3.854,-3.8555,-3.8549,-3.8577,-3.8561,-3.8586,-3.8596,-3.8604,-3.863,-3.8677,-3.8709,-3.8752,-3.886,-3.8863,-3.891,-3.8926,-3.8939,-3.8951,-3.9008,-3.9029,-3.8806,-3.8806,-3.8806,0,0,-3.845,-3.8465,-3.85,-3.8557,-3.8575,-3.863,-3.8558,-3.8619,-3.866,-3.8605,-3.8685,-3.8692,-3.8718,-3.8815,-3.8857,-3.8825,-3.9013,-3.8951,-3.8962,-3.8966,-3.902,-3.9041,-3.906,-3.8813,-3.8811,-3.881,0,0,-3.859,-3.8606,-3.8682,-3.8701,-3.8729,-3.8725,-3.8743,-3.8763,-3.8765,-3.8845,-3.8805,-3.8853,-3.8935,-3.8956,-3.8977,-3.9125,-3.9092,-3.914,-3.9224,-3.928,-3.9298,-3.9313,-3.9366,-3.9385,-3.9151,-3.9152,-3.9152,0,-3.8661,-3.8744,-3.8724,-3.8789,-3.8815,-3.8768,-3.8844,-3.8864,-3.8905,-3.8924,-3.8887,-3.8989,-3.9004,-3.9104,-3.914,-3.9159,-3.9179,-3.9137,-3.9297,-3.9312,-3.9326,-3.9377,-3.9397,-3.9157,-3.9157,-3.9156,-3.9156,0,-3.8831,-3.8889,-3.8947,-3.8989,-3.9021,-3.9091,-3.9081,-3.9116,-3.9098,-3.9097,-3.9179,-3.9195,-3.9241,-3.9264,-3.9245,-3.9362,-3.9341,-3.9301,-3.9234,-3.9354,-3.94,-3.9419,-3.9166,-3.9163,-3.9162,-3.916,0,0,-3.9022,-3.9052,-3.9074,-3.9092,-3.912,-3.9164,-3.9232,-3.9279,-3.931,-3.9339,-3.9396,-3.9467,-3.943,-3.9454,-3.9438,-3.9487,-3.9604,-3.9441,-3.9441,-3.9471,-3.9734,-3.9764,-3.9786,-3.9582,-3.9586,-3.9589,-3.9731,0,-3.9162,-3.928,-3.9264,-3.9378,-3.9431,-3.9388,-3.9447,-3.947,-3.9472,-3.9516,-3.9517,-3.9568,-3.9516,-3.953,-3.9577,-3.958,-3.9656,-3.9569,-3.9634,-3.9636,-3.9629,-3.9811,-3.9843,-3.9977,-3.975,-3.9753,-3.9755,0,-3.9341,-3.9378,-3.9498,-3.9518,-3.954,-3.9593,-3.9635,-3.9678,-3.9704,-3.9701,-3.9729,-3.9704,-3.9771,-3.9704,-3.9796,-3.9738,-3.9763,-3.9768,-3.9773,-3.9778,-3.9703,-3.9821,-4.0019,-4.004,-3.9783,-3.9781,-3.9779,0,-3.9468,-3.9548,-3.963,-3.9648,-3.9673,-3.9712,-3.9724,-3.9746,-3.9775,-3.9811,-3.983,-3.9873,-3.9896,-3.993,-3.9917,-3.9869,-4.0012,-3.9944,-4.0012,-4.0012,-4.0044,-4.0042,-4.0249,-4.006,-4.006,-4.0059,-4.0059,0,-3.9626,-3.9701,-3.9688,-3.9739,-3.9821,-3.9802,-3.9884,-3.989,-3.991,-3.9961,-3.9926,-3.9974,-3.9954,-4.0,-3.999,-4.0069,-4.0079,-4.0079,-4.0075,-4.0082,-4.0083,-4.0099,-4.0089,-4.0065,-4.0064,-4.0063,-4.0062,0,-3.9782,-3.9777,-3.9864,-3.9881,-3.9887,-3.9947,-3.9962,-4.0009,-4.0008,-4.0072,-4.0086,-4.0084,-4.0137,-4.0128,-4.0186,-4.018,-4.0278,-4.0262,-4.027,-4.0266,-4.0335,-4.0329,-4.056,-4.0589,-4.0381,-4.0383,-4.0385,0,-3.9884,-3.9941,-3.9965,-3.9997,-4.0012,-4.0064,-4.0094,-4.0076,-4.0109,-4.0143,-4.0186,-4.0236,-4.0275,-4.0362,-4.0365,-4.041,-4.0396,-4.0473,-4.0402,-4.0407,-4.0397,-4.0394,-4.04,-4.0488,-4.049,-4.0492,-4.0493,0,-4.0064,-4.0059,-4.0104,-4.0148,-4.0185,-4.0219,-4.0249,-4.0277,-4.0262,-4.0301,-4.0355,-4.0386,-4.0446,-4.0496,-4.0538,-4.055,-4.052,-4.0516,-4.0534,-4.0542,-4.0544,-4.0544,-4.0309,-4.0511,-4.0509,-4.0508,-4.0507,-4.0506,-4.0196,-4.0245,-4.027,-4.0321,-4.0342,-4.0372,-4.0417,-4.0422,-4.0467,-4.0516,-4.0503,-4.0565,-4.0589,-4.0642,-4.0658,-4.0706,-4.0677,-4.0703,-4.071,-4.0717,-4.0725,-4.0536,-4.0713,-4.0713,-4.0712,-4.0712,-4.0712,0,-4.0375,-4.0389,-4.0437,-4.0481,-4.0521,-4.049,-4.0522,-4.0558,-4.0613,-4.0638,-4.0678,-4.0741,-4.079,-4.0797,-4.0843,-4.088,-4.0868,-4.0893,-4.089,-4.0893,-4.0749,-4.0728,-4.0902,-4.0902,-4.0902,-4.0902,-4.0902,-4.0902,-4.0473,-4.0554,-4.0552,-4.0643,-4.0656,-4.0717,-4.0738,-4.0765,-4.0785,-4.0858,-4.0898,-4.0903,-4.0921,-4.0968,-4.1012,-4.1013,-4.1031,-4.1062,-4.1058,-4.0922,-4.0903,-4.0885,-4.0866,-4.1066,-4.1067,-4.1199,-4.12,-4.1201]}]]